星链-3928 (STARLINK-3928 )

导读

STARLINK-3928是美国SpaceX公司星链(Starlink)卫星互联网星座中的一员,于2022年5月14日发射升空。星链项目旨在通过低轨卫星星座为全球提供高速宽带互联网服务,尤其聚焦偏远地区通信覆盖。作为组网卫星,它承担着扩展星座覆盖范围、提升全球网络接入能力的作用,助力星链向航空、海事等多领域商用服务推进。

Basic Information
目录编号:
52606
目录名称:
STARLINK-3928
国际标识:
2022-052J
轨道中心:
EARTH
卫星名称:
星链-3928
卫星全名:
星链-3928 (STARLINK-3928 )
卫星状态:
在轨 (已飞行1582 天)
发射日期:
2022-05-14 UTC
国别 :
美国 (US)
星等 :
--
This satellite is enrolled in the Space Conjunction Data Service (SCDS) and the current flight risk assessment level is: No High Risk
Orbit Information
数据来源 国际轨道数据
星历时间: 2026-09-12T08:28:57+0800
9小时前
查看轨道信息
半长轴: 6891.265km
偏心率: 0.0001765
轨道倾角: 53.162°
近地点辐角 88.503°
升交点赤经 158.921°
平近点角 271.617°
近地点: 511.911km
远地点: 514.345km
周期: 94.887分钟
每日圈数: 15.175899
Detailed Information
固有亮度:
5
最大亮度:
2.5
卫星平台:
Starlink v1.5
覆盖范围:
全球
运营商:
太空探索技术公司
运营商所在国:
美国
制造商(研发单位):
太空探索技术公司
制造商所在国:
美国
使用方式:
暂无
Satellite Introduction
星链(Starlink)计划是由太空探索技术公司(SpaceX)提出的一个巨型低轨卫星互联网星座项目,计划在2019年至2024年间在太空搭建由约1.2万颗卫星组成的“星链”网络,其中1584颗将部署在地球上空550千米处的近地轨道,并从2020年开始工作。该卫星仍在工作。
2D Orbit Map
3D Orbit Map
Orbit Altitude Analysis Chart
Orbit Inclination Analysis Chart
Orbit Comprehensive Analysis Chart
View Comprehensive Chart
Conjunction Data List
Event ID Objects TCA Miss Dist (km) Collision Risk Probability Collision Risk Index (CRI) Action
CDM_260913-212905-260606-189723
OBJECT D (61897)
2026-09-13T
21:29:38+0000
0.404 km
远距离
3.167967E-4 高风险 0.85
CDM_260907-062505-260606-667627
OBJECT L (66676)
2026-09-07T
06:25:07+0000
2.382 km
极远距离
1.85943E-6 低风险 0.4
Miss Distance Evolution Trend with All Objects
Collision Probability Evolution Trend with All Objects